Location: Brno
(49.2000°N, 16.6330°E)
Time: 17:47:39
(UTC+02:00)

Transit 4A - Pass Details

Date: 04 August 2021
Orbit: 871 x 974 km, 66.8° (Epoch: 16 September)

Event Time Altitude Azimuth Distance (km) Brightness Sun altitude
Rises 04:36:36 0° 305° (NW) 3,468 10.7 -8.1°
Reaches altitude 10° 04:40:32 10° 331° (NNW) 2,529 10.3 -7.6°
Maximum altitude 04:43:24 14° 1° (N) 2,275 10.5 -7.2°
Drops below altitude 10° 04:46:16 10° 31° (NNE) 2,537 11.5 -6.8°
Sets 04:50:14 0° 57° (ENE) 3,489 13.7 -6.3°
